Theta_e
287 283 280 282 283 283 282 281 280 281 284 282 281 282 286 287 286 286 286 286 286 287 286 288 289 290 290 291 292 293 291 290 290 291 290 291 292 294 294 295 297 297 297 299
282 280 284 285 285 283 281 280 279 282 284 281 280 281 287 286 286 284 285 285 285 286 287 287 288 289 291 290 290 290 290 290 290 290 290 291 290 291 292 294 295 296 297 297
281 283 286 284 281 281 280 280 279 280 281 282 279 281 284 285 286 285 285 285 286 286 287 288 289 288 287 287 288 289 291 291 291 291 291 291 290 290 291 292 293 295 296 297
282 283 283 281 281 282 279 281 281 281 277 273 279 275 280 284 284 285 284 283 284 286 288 288 288 287 287 288 288 290 292 291 291 291 290 289 288 288 290 291 293 294 295 296
281 280 280 280 281 283 280 282 281 281 275 271 274 271 279 282 282 283 283 284 284 285 287 288 288 289 288 289 288 289 290 290 290 290 291 290 290 291 292 293 292 293 294 294
280 283 282 281 283 283 284 281 281 279 274 267 271 273 277 279 281 282 283 284 285 286 287 287 287 289 289 289 288 288 289 289 291 292 292 291 290 290 290 290 290 291 291 292
280 280 281 284 281 282 281 278 269 270 268 272 275 271 278 282 281 282 284 284 285 287 287 287 287 288 288 288 288 288 288 290 292 291 291 290 290 289 288 288 289 288 289 290
277 277 281 283 281 280 279 278 273 267 270 272 275 271 279 283 284 284 287 287 287 287 287 287 286 288 288 288 287 287 291 290 290 290 290 290 290 289 289 289 290 290 290 290
278 279 282 284 283 283 279 277 281 270 262 268 273 277 281 282 282 283 285 287 287 287 286 285 287 287 288 287 287 290 290 289 289 289 289 289 289 289 289 288 290 290 290 290
283 279 281 282 284 284 280 282 277 277 270 265 271 272 277 279 281 283 285 286 286 286 286 287 288 287 287 286 289 290 289 288 288 289 289 290 291 290 289 289 289 289 289 288
281 281 278 280 279 279 278 277 279 281 279 272 269 275 282 281 282 284 285 286 285 285 286 287 286 286 285 285 288 288 288 287 288 288 289 290 291 289 288 288 289 289 289 289
282 280 271 277 278 280 280 279 280 277 274 273 273 274 284 283 285 286 285 286 285 285 286 286 286 285 285 285 286 286 287 286 287 288 288 290 290 290 289 288 289 289 288 289
282 274 266 273 277 278 277 280 280 278 276 272 271 274 283 283 283 286 284 283 283 283 283 284 284 284 284 284 284 285 286 286 287 288 287 289 287 288 286 287 288 288 288 288
285 277 273 272 274 277 275 277 278 277 269 273 276 276 281 283 283 284 284 283 281 282 283 283 283 283 283 283 283 283 285 286 287 287 287 287 288 288 287 287 288 288 288 288
280 270 272 273 276 277 278 277 277 276 277 273 277 278 283 284 284 284 284 283 281 281 282 282 282 282 283 283 282 283 285 286 286 285 286 288 288 287 287 287 287 287 288 288
280 268 272 269 270 276 277 280 278 277 278 277 278 278 286 286 283 283 283 282 280 280 281 280 283 283 282 283 282 283 284 285 285 284 286 287 286 286 287 287 287 287 287 287
277 273 272 265 268 268 272 277 279 280 278 280 276 282 283 282 282 283 280 282 281 280 278 278 281 280 281 281 283 282 283 286 286 285 287 285 285 285 286 286 286 286 286 287
271 272 273 266 269 267 275 277 278 280 282 282 282 283 281 283 282 284 283 281 281 277 277 281 280 279 280 282 282 283 282 284 284 283 284 284 284 285 285 285 285 286 286 286
281 280 274 269 260 269 276 276 276 275 276 280 281 282 284 282 280 280 283 282 281 277 278 278 278 278 277 277 280 279 278 284 277 278 283 281 285 284 285 285 285 285 285 285
279 283 278 265 268 262 271 276 278 279 273 280 281 282 281 280 276 278 283 282 281 277 274 278 278 278 276 276 275 276 279 278 278 278 280 280 280 284 285 285 284 285 284 284
276 278 275 274 271 269 276 278 279 269 273 278 280 281 279 279 281 282 284 283 282 276 278 277 276 276 276 275 276 275 275 276 279 278 278 279 279 284 285 285 285 284 283 283
273 274 274 274 272 270 278 276 275 279 279 280 280 279 279 279 281 282 282 283 282 278 276 276 276 277 278 278 277 277 275 279 277 276 276 277 277 280 283 284 283 283 283 279
272 273 271 274 274 280 279 280 281 281 281 280 281 281 281 282 281 281 281 281 282 281 279 277 276 278 281 277 278 279 279 276 275 278 278 275 277 280 280 283 282 282 282 282
274 277 275 274 278 278 280 280 281 281 282 283 282 281 280 280 280 281 281 281 281 282 282 279 279 278 278 277 278 278 278 277 275 277 280 277 277 279 279 280 283 283 282 282
277 276 275 274 279 278 280 281 282 282 283 282 282 282 282 281 281 281 281 281 281 282 282 282 281 281 280 279 277 275 278 278 277 277 279 279 278 279 278 277 279 282 284 285
277 277 275 275 281 279 281 282 283 281 281 282 282 281 281 281 281 281 280 280 280 280 281 279 279 278 280 278 277 278 273 275 276 278 279 280 279 279 278 276 276 283 284 285
Wind_Speed
1 3 8 10 7 2 2 3 4 2 2 2 4 10 21 7 6 9 9 8 7 7 1 5 6 8 8 6 7 6 7 4 3 3 2 2 3 3 3 4 5 6 5 5
3 9 4 3 4 5 4 2 5 4 2 1 4 13 20 7 3 2 6 7 2 5 6 7 8 6 4 7 6 7 6 4 3 2 0 1 2 3 3 3 6 6 6 5
7 1 4 3 3 4 3 5 3 3 4 3 7 9 4 3 4 5 7 4 5 6 9 8 8 7 6 6 5 5 4 3 3 3 2 2 2 2 3 3 4 4 7 7
6 2 4 3 3 5 2 2 3 3 4 4 4 6 4 5 7 6 6 7 6 7 6 7 7 6 6 5 4 4 3 3 3 4 3 3 2 4 3 4 4 7 6 7
5 5 4 3 4 4 4 3 4 3 4 4 5 5 9 4 5 5 4 5 5 5 7 7 6 6 5 5 3 3 3 5 5 5 5 3 4 3 4 6 7 7 7 6
2 0 2 3 3 2 6 5 6 4 3 3 4 6 6 3 5 6 2 3 5 6 6 5 3 5 3 3 3 2 4 4 5 5 4 4 6 7 6 7 7 6 5 5
1 3 2 3 5 3 3 5 3 5 4 6 3 4 8 6 3 3 6 5 4 6 6 5 5 3 1 3 1 2 4 3 3 5 5 5 6 6 7 6 6 6 6 6
6 4 8 4 4 5 6 6 6 7 3 4 3 6 3 4 5 1 4 5 5 4 3 3 2 2 1 1 3 3 4 5 6 7 7 5 6 4 5 5 6 7 7 8
5 1 2 2 1 2 4 5 4 9 1 4 3 5 4 2 2 4 7 7 4 3 2 1 3 3 2 1 1 1 2 4 5 6 6 6 6 6 8 8 9 8 8 7
4 3 0 1 1 0 2 3 3 2 2 3 5 5 5 7 7 7 6 6 3 3 4 4 4 3 3 2 1 2 3 5 5 6 5 6 9 9 9 8 10 12 11 9
4 3 1 2 7 8 2 2 1 2 3 6 2 7 6 11 9 9 7 4 2 3 5 5 4 4 4 4 3 4 4 5 5 6 6 7 11 11 8 9 10 12 11 11
5 5 4 5 1 1 2 4 6 5 5 0 3 8 3 10 8 9 7 4 2 3 4 4 4 5 5 5 5 5 5 5 5 6 8 8 9 9 9 9 11 10 10 11
6 2 3 8 4 1 5 5 3 4 3 6 7 7 2 5 6 7 6 3 4 3 3 3 4 5 5 6 6 6 6 6 6 6 7 7 8 9 8 11 11 10 11 11
3 2 7 9 7 5 5 6 6 6 4 5 10 3 4 7 8 6 4 7 5 5 5 3 4 4 5 6 6 6 6 6 6 6 6 7 10 10 9 11 11 12 12 12
5 5 4 3 2 2 3 5 9 10 6 8 6 13 12 8 9 8 8 2 4 7 7 5 4 5 5 6 5 5 5 5 4 6 7 9 10 10 11 10 11 12 11 11
1 3 3 4 3 1 5 9 8 7 7 11 9 19 11 7 6 7 9 5 7 7 7 5 5 6 5 6 6 5 5 5 5 6 8 9 9 10 11 11 11 12 12 12
7 7 4 7 2 4 9 18 13 11 7 10 13 24 4 7 9 8 7 8 8 8 5 5 5 5 6 6 6 6 5 4 6 7 8 7 8 10 11 11 11 12 12 11
7 6 4 3 2 7 6 0 2 16 17 16 17 16 6 9 5 8 7 6 8 7 5 6 5 4 6 4 5 5 4 4 7 7 7 7 9 10 11 11 11 11 10 10
7 6 4 6 5 8 14 7 8 8 10 13 17 16 17 5 0 4 6 7 7 8 7 5 5 5 4 5 5 3 4 6 5 6 6 6 8 10 10 11 11 12 10 10
9 11 9 4 7 12 4 4 5 5 11 9 13 17 9 7 3 5 7 6 6 5 5 6 5 4 3 5 2 2 6 6 7 6 6 5 5 7 9 10 10 9 8 10
10 13 20 13 9 9 7 4 6 6 5 2 7 9 7 7 7 3 7 4 4 5 7 4 2 4 6 3 3 5 5 8 7 5 5 5 5 6 7 8 8 9 8 9
11 9 10 9 10 18 7 5 11 5 1 3 3 3 5 4 5 7 7 4 3 6 5 4 4 5 5 4 4 6 7 6 5 4 4 5 4 4 4 7 6 8 7 6
5 8 7 10 7 4 8 5 7 4 4 4 6 5 7 7 6 4 3 5 5 6 6 4 5 6 7 5 5 6 7 3 3 4 5 4 3 4 4 6 7 7 7 6
5 4 5 4 9 6 9 4 3 6 5 6 3 3 1 3 4 5 6 6 5 5 6 4 5 8 8 5 5 8 7 4 3 5 6 4 3 2 4 3 3 6 7 7
8 9 10 4 10 1 4 7 7 8 7 5 6 5 6 5 7 6 6 7 7 7 5 5 7 8 9 6 5 5 6 4 5 6 6 5 3 3 3 3 1 3 5 6
9 12 10 11 14 7 8 10 10 9 8 7 3 5 6 7 9 4 7 5 3 6 5 5 6 6 10 7 7 8 5 5 5 6 5 5 4 3 3 2 3 2 6 11
Wind_Direction
31 103 213 210 201 135 137 194 248 275 81 293 247 278 282 307 267 293 299 289 258 242 276 135 125 113 105 98 112 117 111 71 58 35 16 355 307 305 327 338 333 325 319 319
56 229 205 207 171 199 215 198 255 277 88 32 10 286 279 290 266 329 329 3 49 101 81 101 109 114 120 132 120 116 98 64 56 65 333 261 295 295 284 306 319 321 320 316
177 180 131 161 166 163 203 186 224 221 350 54 338 288 349 313 354 40 22 21 57 101 109 107 105 105 104 111 124 117 103 84 65 45 356 333 316 328 337 323 307 303 317 315
234 272 170 157 209 144 231 157 111 89 65 230 7 277 324 349 17 37 39 55 72 81 73 95 111 119 146 167 152 120 101 64 50 32 29 14 313 307 281 297 286 301 295 296
236 166 168 168 208 169 204 100 101 91 94 64 320 83 269 352 358 4 69 89 90 104 122 137 143 154 180 155 127 76 55 43 28 25 27 6 321 283 293 299 294 297 292 282
216 278 155 179 89 88 140 80 55 65 95 20 246 131 287 353 304 305 78 103 127 133 125 115 116 147 145 98 75 50 40 23 23 30 14 331 299 297 296 299 296 298 296 294
178 205 172 154 102 40 98 90 340 356 15 219 151 66 239 299 307 240 143 148 151 128 128 150 162 190 143 162 91 26 23 9 0 332 318 296 273 269 269 279 286 288 295 298
164 276 172 178 195 172 176 161 161 203 196 246 6 240 229 245 300 59 115 119 100 120 165 186 230 351 299 74 40 28 23 343 338 330 307 296 291 286 277 269 292 292 297 296
153 204 29 47 48 132 179 193 143 105 63 50 236 276 327 79 106 116 97 83 94 153 136 85 344 29 9 11 92 106 347 327 323 305 302 304 293 298 294 291 293 293 284 288
188 88 131 118 72 346 196 164 104 4 140 262 291 279 215 189 181 142 115 70 16 348 328 339 347 337 342 3 351 340 332 306 302 310 306 300 312 303 283 291 292 300 294 286
137 102 199 114 196 181 145 228 242 113 138 171 219 258 218 173 181 151 153 177 176 303 328 322 325 315 309 293 272 281 291 308 319 313 296 282 317 307 289 288 293 301 299 300
178 129 169 195 333 351 257 214 177 143 220 224 139 273 146 165 170 152 178 198 255 294 286 300 302 313 317 306 297 292 300 304 297 292 288 279 296 299 297 295 295 294 296 297
185 258 53 346 0 36 217 200 153 104 80 194 143 254 19 160 178 188 181 165 230 209 253 263 281 289 291 285 283 282 283 281 278 278 273 284 302 303 305 303 300 297 293 289
109 143 166 186 193 135 192 195 178 147 143 168 223 250 201 203 225 251 253 215 173 209 244 260 287 270 262 260 261 262 261 248 268 283 283 301 318 313 307 301 303 300 294 290
132 198 159 262 286 178 220 196 184 200 188 179 202 219 237 227 229 241 235 226 195 222 234 240 265 295 300 312 306 291 282 284 294 308 306 317 316 306 306 303 298 296 294 291
146 219 110 320 359 0 273 250 210 205 220 247 266 266 250 258 203 225 239 239 219 233 245 258 279 301 304 306 292 283 280 293 312 307 304 311 308 311 307 306 304 302 298 295
161 136 134 254 5 79 286 235 210 218 195 201 231 248 265 231 228 234 235 209 219 227 236 273 276 271 274 281 283 281 276 294 302 306 290 298 303 309 306 304 303 301 297 294
149 148 180 194 123 213 240 348 222 223 235 217 248 255 211 233 235 226 216 196 214 215 240 252 244 261 277 280 296 292 285 293 293 297 290 298 315 312 312 310 309 305 297 296
163 185 176 183 211 305 282 199 176 169 253 216 230 250 250 236 207 275 216 197 192 191 209 216 222 229 263 284 289 291 298 291 281 281 281 292 316 310 317 317 315 315 305 305
177 188 204 142 193 211 257 227 146 110 268 216 195 232 243 126 206 247 187 180 214 200 203 222 224 218 247 276 261 247 273 271 272 264 267 281 285 302 316 313 313 306 309 309
191 204 219 214 229 276 217 189 147 141 246 177 187 236 149 189 207 207 141 173 194 200 206 216 231 247 257 261 185 251 263 262 253 251 264 281 286 297 303 306 312 308 323 308
183 188 210 219 214 241 158 73 195 198 247 136 130 148 193 226 154 152 175 185 255 263 264 230 238 261 255 233 177 270 268 259 239 227 271 280 286 286 305 304 320 311 328 304
227 185 184 192 211 211 198 178 204 147 156 139 133 146 137 153 185 172 249 267 260 258 260 220 213 258 276 223 192 261 260 249 224 235 269 269 281 300 302 318 350 333 334 343
239 179 215 81 231 212 210 215 173 176 173 153 123 120 154 205 201 209 224 236 239 253 247 222 220 240 259 241 217 222 274 231 196 244 261 262 245 268 307 302 351 356 345 1
197 146 209 264 259 148 201 209 182 182 162 146 206 185 204 218 260 212 233 243 238 241 256 250 237 241 255 266 259 243 260 210 225 232 250 252 230 214 259 283 265 6 338 12
194 203 196 218 223 199 224 196 192 168 186 207 242 283 250 205 247 264 284 279 256 265 251 252 249 250 260 262 262 272 227 215 216 240 231 229 217 232 211 252 299 342 26 23